Location: Unspecified
(0.0000°N, 0.0000°E)
Time: 06:09:56
(UTC+00:00)

Transit 2A - Pass Details

Date: 03 June 2019
Orbit: 598 x 960 km, 66.7° (Epoch: 15 September)

Event Time Altitude Azimuth Distance (km) Brightness Sun altitude
Rises 14:59:57 0° 346° (NNW) 3,179 9.7 40.5°
Reaches altitude 10° 15:02:26 10° 349° (N) 2,199 9.0 39.9°
Maximum altitude 15:07:20 63° 70° (ENE) 750 6.3 38.9°
Drops below altitude 10° 15:11:49 10° 151° (SSE) 2,018 7.9 37.9°
Sets 15:14:02 0° 154° (SSE) 2,895 8.6 37.4°
